CAPE
0 0 0 0 0 0 0 0 8 38 55 40 29 11 0 0 0 22 50 938 1064 1097 1590 2255 2475 2730 2934 2711 2326 2149 2125 2080 2066 1991 1878 1888 1995 1902 1923 1845 1682 1530 1631 1677
0 0 0 0 0 0 0 0 0 0 35 43 43 47 28 20 260 124 85 307 1224 1540 1950 2373 2636 3152 3182 2626 2432 2365 2286 2140 2143 2099 2094 2064 2097 2074 1857 1720 1836 1709 1821 1577
0 0 0 0 0 0 0 0 0 0 0 0 0 6 424 1006 1032 1064 711 386 890 1801 1984 2207 2666 3365 3233 2687 2623 2451 2385 2201 2229 2230 2168 2101 2072 2006 1982 2208 2084 1982 2038 1573
50 1 8 0 0 0 0 0 0 0 0 10 6 523 1517 1787 1803 1824 1708 1513 793 954 2006 2244 2553 3221 3240 2803 2766 2561 2437 2299 2281 2271 2270 2256 2261 2269 2324 2339 2158 2265 2093 1809
375 174 24 27 2 0 0 0 0 0 0 9 66 434 1622 1569 1857 2060 2059 1154 833 626 1368 2228 2625 3076 3268 2931 2792 2538 2385 2306 2414 2388 2401 2330 2201 2220 2248 2064 2189 2225 2133 1556
452 286 180 11 47 8 0 0 0 0 0 12 238 241 1549 1716 1611 1467 1802 1970 1207 859 1757 2489 2834 2976 3279 3114 2869 2640 2473 2346 2425 2506 2497 2407 2406 2481 2315 2190 2067 2064 1891 1442
253 262 216 37 96 24 25 0 0 0 18 248 541 1884 1928 1561 1419 1287 1197 1419 1599 1517 1274 1311 2042 2613 3204 3351 3047 2878 2667 2420 2319 2579 2662 2684 2694 2496 2377 2230 1968 1868 1737 1560
182 171 72 25 371 120 214 768 169 326 906 1214 1938 1695 1523 1415 1343 1295 1280 1147 1347 1584 1802 2029 1981 2277 2718 3127 3251 3190 2858 2750 2566 2549 2624 2595 2312 2125 2200 2086 2098 1780 1676 1593
0 148 118 658 856 1232 1181 1396 1566 1544 1648 1696 1554 1434 1336 1255 1204 1212 1280 1352 1294 1473 2040 2282 2519 2500 2505 2824 3189 3088 2911 2528 2364 2778 2723 2259 1872 1901 1689 1563 1464 1776 1449 1318
0 0 100 1243 1348 1253 1260 1354 1320 1279 1162 1130 1102 940 873 786 726 662 719 1054 1385 1390 1584 1526 1068 1121 2035 2404 2417 2726 2350 2131 1994 1967 2180 1485 831 427 959 723 465 222 220 379
4 4 448 1043 1265 1344 1246 1192 1162 1036 971 934 724 691 587 620 860 807 742 627 1137 1179 1543 1702 1457 1494 1425 1009 1465 1707 1722 1649 1098 811 488 439 263 31 360 151 31 2 5 11
374 558 831 1149 1139 878 843 844 783 752 672 552 571 798 811 1061 1084 1065 1058 1116 873 927 938 953 1052 1237 1215 1129 673 500 551 252 246 263 547 872 873 502 6 0 27 14 15 190
498 698 661 963 944 874 796 721 571 508 553 818 830 879 1052 1171 1162 923 1295 1186 1049 967 759 687 731 893 712 786 922 1020 924 926 677 415 116 264 362 380 116 108 50 0 2 2
438 742 925 789 730 556 626 593 498 651 749 772 896 823 840 1030 806 964 867 961 952 819 759 712 700 756 770 507 632 749 647 140 439 470 236 210 204 164 237 223 388 255 0 0
194 498 650 1044 873 787 750 737 803 715 803 849 863 761 632 772 810 455 439 407 362 420 425 593 528 424 634 777 818 880 949 1067 856 369 295 312 340 359 456 363 215 94 58 0
414 471 407 632 888 964 957 810 770 675 818 885 759 560 378 419 347 301 161 207 174 114 269 206 192 288 525 496 691 650 515 138 324 256 465 394 289 231 132 80 14 2 5 3
493 321 541 590 382 635 875 985 937 962 1114 970 686 218 60 62 90 87 88 51 23 25 30 69 266 136 307 681 338 434 527 442 173 343 275 197 215 144 77 46 33 3 6 1
657 563 419 187 438 652 885 1026 1179 1146 1163 844 294 57 41 31 190 68 3 15 13 22 19 56 118 241 369 635 659 563 505 469 180 277 272 209 192 161 146 116 100 27 3 0
884 819 865 822 495 547 979 1221 1122 1359 909 291 5 27 42 56 42 2 11 15 27 47 10 49 1 206 182 20 167 150 112 323 332 283 276 132 221 246 198 115 93 57 3 0
872 1034 1016 827 827 550 1137 1356 1472 812 255 17 99 83 149 96 34 25 35 88 52 6 11 25 194 150 59 2 0 21 20 6 13 26 21 35 129 255 231 65 97 150 148 6
815 1112 1114 1060 868 889 1259 1517 1103 570 304 218 134 214 148 50 45 21 93 45 75 13 5 0 4 2 23 9 4 22 36 13 17 25 17 67 208 188 204 217 168 87 97 215
511 974 1226 1176 1083 1255 1454 1267 794 508 253 126 198 136 62 76 60 90 0 1 0 0 12 8 0 0 0 0 0 0 0 0 0 1 2 4 10 17 18 19 119 147 254 250
462 895 1136 1264 1236 1431 1279 866 561 271 149 106 56 96 98 12 0 0 0 0 0 0 0 0 0 0 0 0 0 0 0 0 0 0 0 0 0 0 0 2 5 0 0 1
555 629 1158 977 1401 1042 807 523 188 142 39 5 39 22 0 0 0 0 0 0 0 0 0 0 0 0 0 1 0 0 2 4 3 0 1 0 0 0 0 0 0 0 3 0
693 619 1133 897 779 645 531 282 146 20 0 0 4 0 0 0 0 0 0 0 0 0 3 0 0 0 0 14 10 15 20 23 10 0 4 23 35 40 26 30 26 6 0 10
741 909 801 649 505 386 324 81 4 0 0 0 0 0 2 7 5 7 19 10 3 3 12 23 11 12 26 65 39 33 29 39 36 48 16 34 68 90 93 56 40 34 77 80
579 378 126 6 0 0 0 0 0 0 0 1 1 4 10 14 10 7 21 1 25 30 48 56 9 0 13 27 32 37 43 37 27 34 33 23 40 41 37 20 27 41 41 30
CIN
-0 -0 -0 -0 -0 -0 -0 -0 -14 -10 -14 -10 -12 -10 -0 -0 -0 -74 -36 -18 -27 -46 -79 -110 -127 -140 -120 -108 -136 -118 -93 -53 -37 -30 -44 -34 -19 -16 -7 -2 -3 -4 -4 -4
-0 -0 -0 -0 -0 -0 -0 -0 -0 -0 -13 -24 -1 -21 -46 -68 -12 -46 -53 -21 -26 -46 -84 -101 -141 -131 -116 -135 -153 -142 -119 -107 -86 -44 -29 -21 -14 -15 -10 -8 -1 -1 -3 -2
-0 -0 -0 -0 -0 -0 -0 -0 -0 -0 -0 -0 -0 -8 -6 -18 -29 -41 -58 -68 -36 -42 -86 -99 -127 -110 -111 -140 -153 -167 -153 -120 -97 -67 -41 -26 -23 -20 -31 -3 -2 -1 -1 -6
-7 -2 -7 -0 -0 -0 -0 -0 -0 -0 -0 -7 -3 -6 -19 -51 -50 -77 -97 -100 -106 -70 -64 -111 -113 -84 -75 -127 -141 -154 -146 -135 -105 -95 -47 -10 -1 -1 -1 -1 -1 -1 -1 -1
-4 -4 -7 -4 -7 -0 -0 -0 -0 -0 -0 -3 -8 -2 -28 -89 -116 -138 -154 -170 -150 -97 -67 -80 -99 -67 -52 -88 -110 -140 -150 -150 -121 -92 -56 -57 -40 -12 -3 -4 -0 -1 -1 -7
-8 -4 -8 -11 -12 -8 -0 -0 -0 -0 -0 -4 -2 -2 -25 -101 -142 -171 -173 -171 -192 -186 -117 -95 -72 -34 -14 -37 -63 -101 -107 -114 -79 -43 -39 -34 -12 -4 -3 -1 -3 -1 -0 -9
-7 -4 -6 -15 -11 -13 -6 -0 -0 -0 -12 -7 -5 -19 -72 -116 -160 -172 -187 -186 -153 -156 -149 -154 -115 -42 -4 -3 -17 -28 -39 -59 -48 -8 -0 -0 -1 -1 -0 -1 -3 -2 -1 -4
-11 -4 -6 -2 -5 -2 -6 -1 -5 -5 -5 -5 -30 -62 -103 -130 -142 -152 -147 -179 -142 -121 -108 -115 -116 -81 -16 -1 -1 -2 -2 -5 -4 -2 -1 -1 -4 -8 -2 -4 -3 -5 -4 -5
-1 -134 -347 -18 -19 -48 -18 -14 -25 -35 -25 -50 -56 -69 -85 -109 -117 -144 -137 -143 -155 -122 -109 -100 -87 -69 -44 -11 -8 -7 -3 -5 -5 -1 -1 -6 -9 -7 -7 -13 -10 -1 -9 -15
-0 -0 -168 -35 -54 -45 -34 -59 -61 -73 -111 -89 -67 -110 -107 -121 -144 -166 -184 -174 -149 -154 -133 -165 -237 -226 -83 -29 -24 -2 -5 -4 -8 -10 -6 -24 -74 -7 -46 -70 -113 -125 -130 -116
-14 -64 -34 -37 -48 -39 -51 -69 -70 -117 -135 -130 -134 -130 -145 -142 -156 -160 -172 -193 -166 -160 -113 -76 -115 -84 -74 -147 -50 -9 -0 -0 -35 -77 -106 -75 -212 -48 -131 -214 -138 -184 -305 -207
-63 -33 -11 -12 -42 -68 -68 -83 -122 -132 -159 -200 -157 -142 -150 -138 -169 -171 -164 -155 -176 -166 -144 -121 -78 -34 -39 -29 -93 -95 -42 -103 -99 -101 -37 -1 -0 -50 -179 -0 -357 -257 -129 -29
-1 -19 -10 -13 -43 -43 -65 -94 -116 -129 -133 -120 -130 -117 -105 -103 -110 -151 -76 -96 -105 -109 -136 -130 -92 -41 -58 -30 -16 -9 -3 -0 -4 -38 -100 -55 -14 -18 -114 -170 -297 -10 -293 -283
-22 -17 -16 -11 -10 -49 -45 -71 -117 -74 -76 -76 -72 -89 -72 -42 -107 -45 -60 -57 -58 -58 -67 -66 -62 -51 -32 -50 -31 -13 -14 -106 -10 -24 -59 -81 -66 -66 -38 -23 -0 -66 -0 -0
-15 -18 -4 -10 -3 -26 -21 -25 -26 -33 -40 -43 -30 -37 -59 -31 -45 -110 -89 -89 -100 -82 -84 -47 -53 -77 -38 -9 -0 -1 -1 -0 -6 -58 -40 -22 -5 -3 -0 -7 -57 -94 -106 -0
-4 -4 -3 -2 -6 -13 -15 -11 -13 -7 -4 -1 -14 -49 -77 -51 -59 -74 -111 -73 -73 -101 -73 -95 -102 -82 -26 -21 -1 -1 -4 -80 -36 -29 -2 -1 -14 -23 -61 -86 -45 -0 -0 -0
-12 -13 -22 -23 -12 -2 -2 -2 -3 -2 -2 -0 -13 -103 -172 -134 -91 -95 -76 -148 -223 -198 -175 -118 -62 -98 -37 -2 -1 -6 -3 -3 -63 -1 -0 -3 -10 -23 -44 -56 -59 -0 -0 -0
-13 -20 -26 -22 -4 -1 -2 -0 -8 -11 -9 -24 -65 -153 -135 -113 -37 -103 -87 -221 -136 -128 -104 -111 -66 -28 -1 -0 -1 -5 -0 -0 -20 -6 -2 -5 -5 -2 -6 -9 -9 -69 -0 -0
-5 -17 -20 -15 -16 -1 -2 -0 -7 -4 -62 -112 -226 -157 -129 -88 -87 -51 -115 -100 -102 -106 -0 -83 -26 -6 -3 -13 -21 -10 -11 -1 -3 -7 -4 -19 -5 -3 -0 -4 -4 -43 -2 -0
-3 -1 -8 -27 -21 -1 -1 -1 -2 -90 -134 -171 -102 -102 -75 -82 -107 -103 -76 -62 -61 -17 -91 -58 -8 -2 -24 -7 -0 -1 -3 -1 -2 -2 -1 -25 -27 -0 -2 -40 -14 -2 -6 -1
-5 -1 -1 -12 -12 -2 -1 -1 -5 -65 -85 -81 -86 -72 -76 -104 -93 -79 -22 -28 -15 -64 -7 -0 -17 -33 -3 -10 -21 -2 -1 -2 -1 -2 -0 -22 -0 -1 -1 -0 -4 -28 -22 -2
-38 -11 -0 -1 -1 -1 -1 -1 -18 -62 -81 -93 -74 -109 -108 -85 -84 -42 -9 -2 -0 -0 -6 -1 -0 -0 -0 -0 -0 -0 -0 -0 -0 -1 -1 -1 -2 -2 -2 -1 -1 -5 -1 -8
-24 -20 -6 -2 -0 -1 -1 -5 -36 -61 -82 -78 -105 -97 -61 -24 -0 -0 -0 -0 -0 -0 -0 -0 -0 -0 -0 -0 -0 -0 -0 -0 -0 -0 -0 -0 -0 -0 -0 -1 -1 -0 -0 -1
-23 -42 -3 -12 -6 -8 -1 -29 -42 -51 -97 -114 -62 -85 -0 -0 -0 -0 -0 -0 -0 -0 -0 -0 -0 -0 -0 -0 -0 -0 -2 -2 -2 -0 -2 -0 -0 -0 -0 -0 -0 -0 -1 -0
-1 -22 -0 -5 -11 -6 -2 -9 -25 -68 -0 -13 -54 -0 -0 -0 -0 -0 -0 -0 -0 -0 -1 -0 -0 -0 -0 -1 -1 -3 -1 -2 -2 -0 -0 -3 -3 -4 -3 -3 -2 -3 -0 -2
-0 -1 -5 -6 -9 -5 -2 -5 -32 -0 -0 -0 -0 -0 -1 -1 -6 -2 -1 -3 -0 -11 -16 -24 -5 -9 -13 -8 -2 -3 -2 -3 -2 -10 -3 -2 -3 -3 -3 -3 -3 -5 -1 -3
-0 -20 -84 -53 -0 -8 -0 -0 -0 -0 -0 -53 -17 -2 -3 -2 -6 -15 -10 -7 -12 -9 -2 -5 -15 -6 -10 -5 -3 -3 -2 -3 -11 -2 -3 -3 -2 -3 -5 -5 -2 -1 -2 -1
Wind_Speed
31 41 38 37 34 41 46 48 47 41 31 31 21 21 15 19 23 21 19 10 6 4 7 9 9 10 11 11 11 11 10 9 8 9 9 9 9 9 9 5 5 5 4 5
34 38 38 40 35 36 43 43 46 45 39 25 12 15 20 21 22 21 19 14 7 3 4 8 8 9 10 10 11 12 11 11 10 10 10 10 8 7 6 5 4 4 4 5
33 33 36 46 41 38 37 41 38 43 36 36 31 20 20 20 19 17 18 18 10 5 0 4 7 8 9 10 11 11 12 10 10 11 10 10 9 8 6 4 3 3 4 4
30 35 43 41 40 40 42 37 33 37 26 16 17 13 14 15 15 16 18 18 16 18 6 3 4 6 6 7 8 8 10 10 10 11 10 8 6 6 5 6 4 2 4 3
26 33 39 39 39 37 37 43 33 30 27 12 12 9 12 13 14 15 17 19 19 18 14 8 2 3 4 4 5 5 6 7 7 9 9 8 7 9 6 3 1 4 6 10
40 37 40 41 28 27 31 39 34 31 23 15 12 18 10 11 13 15 16 18 18 17 15 11 8 3 4 4 5 5 4 5 5 5 6 7 6 4 3 3 1 4 7 8
9 31 35 36 32 13 31 37 27 32 22 17 15 11 6 9 13 14 16 18 18 17 16 16 14 10 6 7 8 7 6 5 5 5 5 4 4 3 2 3 1 1 5 8
39 24 36 28 14 19 22 19 25 12 12 11 10 8 10 12 14 17 18 18 19 18 19 19 18 16 11 9 11 9 9 9 10 9 8 8 8 8 6 4 2 2 5 7
25 34 37 20 17 13 12 9 9 8 9 9 10 11 13 15 16 17 18 19 19 20 20 20 21 21 17 15 17 14 12 12 11 11 12 13 15 13 12 9 8 7 14 14
1 37 38 10 10 11 8 8 9 8 10 12 13 14 15 16 17 18 19 20 20 21 20 21 21 22 23 22 22 19 16 16 16 16 16 12 16 32 16 8 8 12 18 20
16 9 24 7 5 8 9 10 10 11 12 14 16 17 19 19 21 22 22 22 21 22 21 21 21 22 23 22 19 18 18 19 19 19 18 20 24 15 15 18 22 31 35 35
14 19 16 5 9 12 12 12 13 14 15 16 18 19 21 21 22 23 24 22 20 20 20 21 21 21 21 20 17 15 16 18 18 20 17 17 19 19 20 23 25 31 23 24
25 20 22 15 12 11 11 13 15 16 18 18 19 20 20 20 21 21 20 19 19 19 20 20 19 20 20 19 18 17 17 17 18 14 15 17 19 23 28 25 18 15 23 28
23 20 19 17 16 14 15 15 16 17 17 19 20 20 20 20 19 20 20 20 20 19 20 20 19 19 20 19 17 17 16 16 14 12 11 14 16 20 22 24 25 23 21 21
25 22 23 19 17 16 17 17 19 20 19 20 19 19 19 19 19 19 19 18 18 18 19 19 18 19 18 18 16 15 17 16 15 12 11 10 9 12 14 18 22 22 21 19
23 20 20 20 20 20 19 19 20 21 21 19 18 18 18 17 16 15 16 18 18 18 19 19 19 19 19 17 16 16 16 16 14 12 11 11 12 13 14 15 16 17 17 18
27 25 20 24 24 22 18 18 19 19 17 16 15 14 12 13 13 14 15 14 16 17 18 19 19 19 20 21 20 16 19 17 16 13 14 15 14 15 16 17 18 19 19 19
30 32 33 32 22 22 19 19 17 14 13 12 11 10 10 11 12 13 15 15 15 16 16 18 18 19 18 18 16 17 17 15 15 14 15 16 15 16 15 16 15 17 17 19
28 29 32 32 33 28 19 15 12 12 11 9 9 9 10 11 12 13 14 14 13 13 16 16 16 16 16 17 17 16 15 14 14 14 15 15 14 14 15 15 17 18 16 16
27 27 28 26 18 14 10 9 7 9 9 9 8 9 10 11 12 14 14 15 16 15 16 15 16 15 16 16 17 16 15 18 18 17 19 19 19 19 18 18 17 18 17 16
27 27 25 18 13 10 6 3 4 5 6 7 7 8 10 11 12 12 12 12 13 13 13 14 15 17 15 17 21 17 17 16 16 18 19 18 18 18 17 17 17 18 19 18
27 26 23 14 8 6 5 3 2 2 4 6 7 9 10 11 13 14 15 14 11 12 14 14 14 15 16 20 17 17 17 18 19 19 20 20 21 20 19 21 20 20 20 18
28 28 25 19 8 7 5 3 2 1 3 5 7 7 9 10 10 9 10 11 10 12 12 12 12 14 16 15 16 17 18 19 20 20 21 22 22 22 23 21 20 20 20 20
29 29 28 22 11 7 6 6 3 3 4 4 4 5 6 7 8 9 9 10 9 13 12 12 13 15 17 16 17 18 19 20 20 21 21 21 22 23 24 23 22 22 22 21
28 27 28 22 10 7 5 4 3 3 3 3 3 4 5 6 6 6 7 9 10 11 10 11 13 15 17 16 17 19 20 20 21 22 22 23 23 23 23 22 22 23 25 23
28 25 24 23 13 8 5 4 3 3 2 2 3 5 9 8 7 8 9 9 10 12 13 9 12 13 13 10 16 18 19 20 20 21 24 23 20 20 20 20 23 22 23 24
22 14 13 14 15 10 4 5 7 7 3 1 5 3 4 4 6 7 9 8 11 11 16 11 11 14 18 19 17 17 18 20 20 23 23 25 25 25 27 28 29 29 29 30
Wind_Direction
271 258 260 259 255 248 246 242 243 240 263 262 285 290 292 291 286 287 290 314 339 35 98 115 110 108 110 110 116 118 109 109 105 116 116 121 124 122 129 88 47 30 45 53
271 261 261 258 256 250 246 246 245 243 248 265 315 303 292 287 286 285 289 294 306 344 92 122 124 125 124 118 113 124 124 123 112 125 127 125 117 116 109 84 60 37 27 10
273 267 263 251 249 250 250 247 250 247 257 260 270 294 285 285 288 295 296 295 303 301 342 134 144 142 137 132 122 126 129 123 120 126 123 124 123 126 127 116 92 57 28 41
277 266 257 255 253 252 250 254 256 251 265 276 281 296 299 296 300 300 301 308 306 291 300 297 158 158 146 138 132 130 133 133 128 131 131 127 122 128 127 132 123 44 13 44
276 263 259 256 251 249 249 247 255 252 254 276 287 287 290 298 307 311 316 309 306 304 305 307 250 189 176 171 157 151 155 154 148 146 144 145 149 151 143 127 84 346 335 317
244 259 253 244 261 259 258 248 248 251 258 266 277 272 277 300 310 316 325 326 322 315 313 319 310 281 230 230 225 213 211 187 176 179 175 168 163 166 165 150 130 320 323 324
235 259 256 240 258 236 243 246 255 251 255 263 273 287 310 316 316 327 326 328 330 330 324 319 319 308 267 259 244 265 271 257 240 231 224 230 241 250 242 190 177 331 328 317
220 194 247 250 254 251 261 275 246 237 254 263 281 294 302 313 316 316 319 325 328 328 328 328 325 316 303 285 286 274 271 274 276 271 262 266 261 266 260 259 249 315 322 317
253 249 260 259 265 270 273 269 264 255 266 271 284 294 302 306 311 317 319 324 324 322 324 325 324 318 316 313 310 301 283 274 272 271 271 281 281 264 268 274 293 316 313 311
25 251 243 247 272 274 269 266 271 277 281 286 288 297 302 305 309 312 318 321 324 322 321 321 321 317 311 312 311 310 302 297 290 281 281 280 305 282 270 250 260 295 303 311
237 240 233 275 280 280 274 273 281 287 289 290 294 297 300 302 307 309 312 316 319 319 323 323 322 318 315 314 318 319 316 312 308 306 301 293 292 274 262 285 300 303 299 293
310 293 280 287 281 282 280 281 283 286 291 296 298 298 301 305 311 311 311 314 315 320 322 323 323 322 322 324 328 327 321 314 308 307 304 302 296 293 286 294 309 314 316 292
295 301 294 305 292 292 293 291 294 295 297 298 302 304 306 308 312 316 321 323 321 320 321 322 325 326 329 334 336 334 330 325 326 321 320 313 306 299 291 303 312 315 305 291
297 291 288 291 291 289 290 292 295 299 302 302 302 305 306 305 308 312 317 318 318 320 321 325 329 330 331 334 339 342 343 343 346 358 347 335 321 304 301 301 301 310 315 314
291 293 285 292 291 288 290 292 291 294 299 300 305 306 308 307 307 309 315 322 318 320 322 324 330 333 341 347 349 344 345 344 355 18 18 9 358 339 330 318 314 316 320 326
291 292 287 283 282 282 286 290 291 295 295 297 307 307 311 312 310 314 317 319 317 317 318 321 325 330 339 346 344 343 343 347 2 12 16 6 353 350 343 341 338 333 331 332
277 282 286 282 281 284 291 296 296 298 303 306 312 315 327 327 323 322 325 331 327 325 325 325 329 331 322 317 323 336 326 336 341 353 346 345 347 347 341 337 331 329 330 333
275 269 265 266 283 283 286 291 296 304 308 311 314 326 331 333 329 327 324 329 333 334 339 332 326 319 327 329 336 332 330 343 346 350 339 335 341 336 337 340 344 343 345 346
284 277 270 268 267 275 283 289 296 298 308 307 312 321 328 334 336 333 335 335 343 345 336 334 332 330 338 337 331 341 349 359 355 353 353 354 354 350 346 349 343 343 352 355
288 286 280 279 283 282 279 284 289 299 301 299 308 316 324 331 336 335 335 333 330 329 323 330 326 332 336 339 328 346 355 343 344 344 340 336 341 338 336 338 341 340 345 345
292 289 287 283 275 270 263 253 283 302 305 301 303 310 316 328 334 339 345 348 335 337 338 333 328 317 342 326 313 343 347 356 354 348 344 351 354 354 353 349 346 345 342 340
291 288 287 289 269 244 239 247 276 325 327 307 305 310 317 324 326 328 326 334 342 336 331 342 337 328 331 307 339 347 351 351 352 352 351 352 351 353 357 351 349 348 348 349
283 281 278 278 254 234 232 234 272 335 337 310 302 310 321 331 343 349 352 350 9 342 1 4 1 343 324 350 349 353 360 360 358 358 355 354 354 350 349 354 357 358 355 352
280 271 267 267 260 228 222 247 257 310 336 344 334 333 339 341 349 353 5 4 6 345 359 2 350 336 323 352 355 356 355 356 357 352 353 357 355 355 355 358 357 353 350 350
282 273 266 260 240 214 208 221 256 304 323 345 19 1 334 340 353 17 23 7 359 345 354 8 358 345 338 345 351 352 350 348 347 346 344 341 342 345 345 347 346 343 339 340
277 272 267 253 240 214 201 236 267 287 324 354 49 322 299 321 352 350 343 346 352 344 329 1 3 357 354 3 352 349 346 349 352 352 344 344 348 346 344 342 339 341 338 335
284 282 270 256 251 200 220 269 278 283 299 256 88 54 332 359 20 345 336 349 347 342 335 355 4 4 346 345 344 351 350 354 353 349 348 344 343 341 338 337 334 332 331 326